Location: Arrington
(35.8681°N, 86.7092°W)
Time: 16:00:42
(UTC+00:00)

Cosmos 1666 Rocket - Pass Details

Date: 23 November 2019
Orbit: 603 x 634 km, 82.5° (Epoch: 07 December)

Event Time Altitude Azimuth Distance (km) Brightness Sun altitude
Rises 11:42:11 0° 183° (S) 2,910 7.2 -10.0°
Reaches altitude 10° 11:44:25 10° 182° (S) 2,004 6.4 -9.6°
Maximum altitude 11:48:52 80° 95° (E) 643 3.8 -8.7°
Drops below altitude 10° 11:53:18 10° 9° (N) 2,003 6.1 -7.9°
Sets 11:55:32 0° 9° (N) 2,909 6.9 -7.4°
